Regional Weather Roundup
Issued by NWS

Home | Current Version | Previous Version | Text Only | Print | Product List | Glossary Off
Versions: 1 2 3 4 5 6 7 8 9 10 11 12 13 14 15 16 17 18 19 20 21 22 23 24 25 26 27 28 29 30 31 32 33 34 35 36 37 38 39 40 41 42 43 44 45 46 47 48 49 50

000
ASUS43 KBIS 291410
RWRND

NORTH DAKOTA REGIONAL WEATHER ROUNDUP
NATIONAL WEATHER SERVICE BISMARCK ND
900 AM CDT WED MAR 29 2017

NOTE: "FAIR" INDICATES FEW OR NO CLOUDS BELOW 12,000 FEET WITH NO
SIGNIFICANT WEATHER AND/OR OBSTRUCTIONS TO VISIBILITY.


NDZ001>003-009>011-017-291500-
NORTHWEST NORTH DAKOTA

CITY           SKY/WX    TMP DP  RH WIND       PRES   REMARKS
WILLISTON      CLOUDY    34  34 100 SW3       30.05S FOG
MINOT          CLOUDY    44  40  85 S9        30.06S
MINOT AFB      SUNNY     40  39  98 S6        30.05S
$$

NDZ018>021-031>035-040>046-291500-
SOUTHWEST NORTH DAKOTA

CITY           SKY/WX    TMP DP  RH WIND       PRES   REMARKS
BISMARCK       FAIR      41  39  93 SE7       30.13F
DICKINSON      CLOUDY    41  40  96 S14       30.06S
GARRISON         N/A     39  37  92 S5        30.09S
HETTINGER ARPT SUNNY     39  38  96 W3        30.11S
$$

NDZ004>008-012>016-024-026-027-054-291500-
NORTHEAST NORTH DAKOTA

CITY           SKY/WX    TMP DP  RH WIND       PRES   REMARKS
GRAND FORKS    CLOUDY    36  33  89 S7        30.16F
GRND FRKS AFB  CLOUDY    34  34 100 CALM      30.16S
DEVILS LAKE    FAIR      42  38  85 S9        30.14F
$$

NDZ022-023-025-028>030-036>039-047>053-291500-
SOUTHEAST NORTH DAKOTA

CITY           SKY/WX    TMP DP  RH WIND       PRES   REMARKS
FARGO          CLOUDY    39  36  89 CALM      30.18R
JAMESTOWN      FAIR      35  34  96 CALM      30.15S FOG
$$




USA.gov is the U.S. government's official web portal to all federal, state and local government web resources and services.